Index of /20260412/WXO-DD/model_gdps/15km/12/237
Name Last modified Size Description
Parent Directory -
20260412T12Z_MSC_GDPS_AirTemp_AGL-120m_LatLon0.15_PT237H.grib2 2026-04-12 17:03 911K
20260412T12Z_MSC_GDPS_AirTemp_AGL-2m_LatLon0.15_PT237H.grib2 2026-04-12 17:03 1.0M
20260412T12Z_MSC_GDPS_AirTemp_AGL-40m_LatLon0.15_PT237H.grib2 2026-04-12 17:03 807K
20260412T12Z_MSC_GDPS_AirTemp_AGL-80m_LatLon0.15_PT237H.grib2 2026-04-12 17:03 917K
20260412T12Z_MSC_GDPS_AirTemp_IsbL-0001_LatLon0.15_PT237H.grib2 2026-04-12 17:03 645K
20260412T12Z_MSC_GDPS_AirTemp_IsbL-0005_LatLon0.15_PT237H.grib2 2026-04-12 17:03 683K
20260412T12Z_MSC_GDPS_AirTemp_IsbL-0500_LatLon0.15_PT237H.grib2 2026-04-12 17:03 1.0M
20260412T12Z_MSC_GDPS_AirTemp_IsbL-0700_LatLon0.15_PT237H.grib2 2026-04-12 17:03 965K
20260412T12Z_MSC_GDPS_AirTemp_IsbL-0850_LatLon0.15_PT237H.grib2 2026-04-12 17:03 1.2M
20260412T12Z_MSC_GDPS_AirTemp_IsbL-0925_LatLon0.15_PT237H.grib2 2026-04-12 17:03 1.1M
20260412T12Z_MSC_GDPS_AirTemp_IsbL-1000_LatLon0.15_PT237H.grib2 2026-04-12 17:03 1.1M
20260412T12Z_MSC_GDPS_Albedo_Sfc_LatLon0.15_PT237H.grib2 2026-04-12 17:03 244K
20260412T12Z_MSC_GDPS_ConvectivePrecip-Accum_Sfc_LatLon0.15_PT237H.grib2 2026-04-12 17:03 4.0M
20260412T12Z_MSC_GDPS_DewPointDepression_AGL-2m_LatLon0.15_PT237H.grib2 2026-04-12 17:03 757K
20260412T12Z_MSC_GDPS_DewPointDepression_IsbL-0500_LatLon0.15_PT237H.grib2 2026-04-12 17:03 1.0M
20260412T12Z_MSC_GDPS_DewPointDepression_IsbL-0700_LatLon0.15_PT237H.grib2 2026-04-12 17:03 1.1M
20260412T12Z_MSC_GDPS_DewPointDepression_IsbL-0850_LatLon0.15_PT237H.grib2 2026-04-12 17:03 1.2M
20260412T12Z_MSC_GDPS_DewPointDepression_IsbL-0925_LatLon0.15_PT237H.grib2 2026-04-12 17:03 1.0M
20260412T12Z_MSC_GDPS_DewPointDepression_IsbL-1000_LatLon0.15_PT237H.grib2 2026-04-12 17:03 973K
20260412T12Z_MSC_GDPS_DewPoint_AGL-2m_LatLon0.15_PT237H.grib2 2026-04-12 17:03 614K
20260412T12Z_MSC_GDPS_DownwardLongwaveRadiationFlux-Accum_Sfc_LatLon0.15_PT237H.grib2 2026-04-12 17:03 743K
20260412T12Z_MSC_GDPS_DownwardShortwaveRadiationFlux-Accum_Sfc_LatLon0.15_PT237H.grib2 2026-04-12 17:03 942K
20260412T12Z_MSC_GDPS_FreezingRain-Accum_Sfc_LatLon0.15_PT237H.grib2 2026-04-12 17:03 387K
20260412T12Z_MSC_GDPS_GeopotentialHeight_IsbL-0001_LatLon0.15_PT237H.grib2 2026-04-12 17:03 404K
20260412T12Z_MSC_GDPS_GeopotentialHeight_IsbL-0005_LatLon0.15_PT237H.grib2 2026-04-12 17:03 501K
20260412T12Z_MSC_GDPS_GeopotentialHeight_IsbL-0500_LatLon0.15_PT237H.grib2 2026-04-12 17:03 539K
20260412T12Z_MSC_GDPS_GeopotentialHeight_IsbL-0700_LatLon0.15_PT237H.grib2 2026-04-12 17:03 693K
20260412T12Z_MSC_GDPS_GeopotentialHeight_IsbL-0850_LatLon0.15_PT237H.grib2 2026-04-12 17:03 718K
20260412T12Z_MSC_GDPS_GeopotentialHeight_IsbL-0925_LatLon0.15_PT237H.grib2 2026-04-12 17:03 738K
20260412T12Z_MSC_GDPS_GeopotentialHeight_IsbL-1000_LatLon0.15_PT237H.grib2 2026-04-12 17:03 789K
20260412T12Z_MSC_GDPS_IcePellets-Accum_Sfc_LatLon0.15_PT237H.grib2 2026-04-12 17:03 265K
20260412T12Z_MSC_GDPS_LatentHeatNetFlux_Sfc_LatLon0.15_PT237H.grib2 2026-04-12 17:03 559K
20260412T12Z_MSC_GDPS_O3MixingRatio_LatLon0.15_PT237H.grib2 2026-04-12 17:07 2.3M
20260412T12Z_MSC_GDPS_O3_EAtm_LatLon0.15_PT237H.grib2 2026-04-12 17:07 2.4M
20260412T12Z_MSC_GDPS_PlanetaryBoundaryLayerHeight_Sfc_LatLon0.15_PT237H.grib2 2026-04-12 17:03 2.5M
20260412T12Z_MSC_GDPS_Precip-Accum_Sfc_LatLon0.15_PT237H.grib2 2026-04-12 17:03 5.1M
20260412T12Z_MSC_GDPS_PrecipRate_Sfc_LatLon0.15_PT237H.grib2 2026-04-12 17:03 3.0M
20260412T12Z_MSC_GDPS_Pressure_MSL_LatLon0.15_PT237H.grib2 2026-04-12 17:03 725K
20260412T12Z_MSC_GDPS_Pressure_Sfc_LatLon0.15_PT237H.grib2 2026-04-12 17:03 1.1M
20260412T12Z_MSC_GDPS_RadiativeTemp_Sfc_LatLon0.15_PT237H.grib2 2026-04-12 17:03 681K
20260412T12Z_MSC_GDPS_Rain-Accum_Sfc_LatLon0.15_PT237H.grib2 2026-04-12 17:03 4.2M
20260412T12Z_MSC_GDPS_RelativeHumidity_AGL-2m_LatLon0.15_PT237H.grib2 2026-04-12 17:03 1.0M
20260412T12Z_MSC_GDPS_Runoff-Accum_Sfc_LatLon0.15_PT237H.grib2 2026-04-12 17:03 120K
20260412T12Z_MSC_GDPS_SensibleHeatNetFlux_Sfc_LatLon0.15_PT237H.grib2 2026-04-12 17:03 491K
20260412T12Z_MSC_GDPS_Snow-Accum_Sfc_LatLon0.15_PT237H.grib2 2026-04-12 17:03 2.0M
20260412T12Z_MSC_GDPS_SnowDepth_Sfc_LatLon0.15_PT237H.grib2 2026-04-12 17:03 1.8M
20260412T12Z_MSC_GDPS_SoilTemp_DBS-0to10cm_LatLon0.15_PT237H.grib2 2026-04-12 17:03 512K
20260412T12Z_MSC_GDPS_SoilTemp_Sfc_LatLon0.15_PT237H.grib2 2026-04-12 17:03 581K
20260412T12Z_MSC_GDPS_SoilVolumetricWaterContent_DBS-0to10cm_LatLon0.15_PT237H.grib2 2026-04-12 17:03 555K
20260412T12Z_MSC_GDPS_SoilVolumetricWaterContent_DBS-0to1cm_LatLon0.15_PT237H.grib2 2026-04-12 17:03 651K
20260412T12Z_MSC_GDPS_SpecificHumidity_AGL-120m_LatLon0.15_PT237H.grib2 2026-04-12 17:03 1.1M
20260412T12Z_MSC_GDPS_SpecificHumidity_AGL-2m_LatLon0.15_PT237H.grib2 2026-04-12 17:03 1.2M
20260412T12Z_MSC_GDPS_SpecificHumidity_AGL-40m_LatLon0.15_PT237H.grib2 2026-04-12 17:03 1.1M
20260412T12Z_MSC_GDPS_SpecificHumidity_AGL-80m_LatLon0.15_PT237H.grib2 2026-04-12 17:03 1.1M
20260412T12Z_MSC_GDPS_SpecificHumidity_IsbL-0001_LatLon0.15_PT237H.grib2 2026-04-12 17:03 1.0M
20260412T12Z_MSC_GDPS_SpecificHumidity_IsbL-0005_LatLon0.15_PT237H.grib2 2026-04-12 17:03 966K
20260412T12Z_MSC_GDPS_SpecificHumidity_IsbL-0500_LatLon0.15_PT237H.grib2 2026-04-12 17:03 1.4M
20260412T12Z_MSC_GDPS_SpecificHumidity_IsbL-0700_LatLon0.15_PT237H.grib2 2026-04-12 17:03 1.6M
20260412T12Z_MSC_GDPS_SpecificHumidity_IsbL-0850_LatLon0.15_PT237H.grib2 2026-04-12 17:03 1.9M
20260412T12Z_MSC_GDPS_SpecificHumidity_IsbL-0925_LatLon0.15_PT237H.grib2 2026-04-12 17:03 1.6M
20260412T12Z_MSC_GDPS_SpecificHumidity_IsbL-1000_LatLon0.15_PT237H.grib2 2026-04-12 17:03 1.5M
20260412T12Z_MSC_GDPS_SpecificHumidity_Sfc_LatLon0.15_PT237H.grib2 2026-04-12 17:03 673K
20260412T12Z_MSC_GDPS_Thickness_IsbL-0850to0700_LatLon0.15_PT237H.grib2 2026-04-12 17:03 472K
20260412T12Z_MSC_GDPS_Thickness_IsbL-1000to0500_LatLon0.15_PT237H.grib2 2026-04-12 17:03 382K
20260412T12Z_MSC_GDPS_Thickness_IsbL-1000to0850_LatLon0.15_PT237H.grib2 2026-04-12 17:03 494K
20260412T12Z_MSC_GDPS_TotalCloudCover_Sfc_LatLon0.15_PT237H.grib2 2026-04-12 17:03 831K
20260412T12Z_MSC_GDPS_UVIndex-ClearSky_Sfc_LatLon0.15_PT237H.grib2 2026-04-12 17:07 1.1M
20260412T12Z_MSC_GDPS_UVIndex_Sfc_LatLon0.15_PT237H.grib2 2026-04-12 17:07 1.4M
20260412T12Z_MSC_GDPS_UpwardLongwaveRadiationFlux_NTAtm_LatLon0.15_PT237H.grib2 2026-04-12 17:03 841K
20260412T12Z_MSC_GDPS_VerticalVelocity_IsbL-0500_LatLon0.15_PT237H.grib2 2026-04-12 17:03 1.3M
20260412T12Z_MSC_GDPS_VerticalVelocity_IsbL-0700_LatLon0.15_PT237H.grib2 2026-04-12 17:03 1.4M
20260412T12Z_MSC_GDPS_VerticalVelocity_IsbL-0850_LatLon0.15_PT237H.grib2 2026-04-12 17:03 1.6M
20260412T12Z_MSC_GDPS_WindDir_AGL-10m_LatLon0.15_PT237H.grib2 2026-04-12 17:03 1.3M
20260412T12Z_MSC_GDPS_WindDir_AGL-120m_LatLon0.15_PT237H.grib2 2026-04-12 17:03 1.3M
20260412T12Z_MSC_GDPS_WindDir_AGL-40m_LatLon0.15_PT237H.grib2 2026-04-12 17:03 1.4M
20260412T12Z_MSC_GDPS_WindDir_AGL-80m_LatLon0.15_PT237H.grib2 2026-04-12 17:03 1.4M
20260412T12Z_MSC_GDPS_WindDir_IsbL-0001_LatLon0.15_PT237H.grib2 2026-04-12 17:03 652K
20260412T12Z_MSC_GDPS_WindDir_IsbL-0005_LatLon0.15_PT237H.grib2 2026-04-12 17:03 814K
20260412T12Z_MSC_GDPS_WindDir_IsbL-0500_LatLon0.15_PT237H.grib2 2026-04-12 17:03 1.3M
20260412T12Z_MSC_GDPS_WindDir_IsbL-0700_LatLon0.15_PT237H.grib2 2026-04-12 17:03 1.6M
20260412T12Z_MSC_GDPS_WindDir_IsbL-0850_LatLon0.15_PT237H.grib2 2026-04-12 17:03 1.9M
20260412T12Z_MSC_GDPS_WindDir_IsbL-0925_LatLon0.15_PT237H.grib2 2026-04-12 17:03 2.0M
20260412T12Z_MSC_GDPS_WindDir_IsbL-1000_LatLon0.15_PT237H.grib2 2026-04-12 17:03 2.0M
20260412T12Z_MSC_GDPS_WindGust-Max_AGL-10m_LatLon0.15_PT237H.grib2 2026-04-12 17:03 2.2M
20260412T12Z_MSC_GDPS_WindGust-Min_AGL-10m_LatLon0.15_PT237H.grib2 2026-04-12 17:03 2.2M
20260412T12Z_MSC_GDPS_WindGust_AGL-10m_LatLon0.15_PT237H.grib2 2026-04-12 17:03 2.2M
20260412T12Z_MSC_GDPS_WindSpeed_AGL-10m_LatLon0.15_PT237H.grib2 2026-04-12 17:03 1.1M
20260412T12Z_MSC_GDPS_WindSpeed_AGL-120m_LatLon0.15_PT237H.grib2 2026-04-12 17:03 1.2M
20260412T12Z_MSC_GDPS_WindSpeed_AGL-40m_LatLon0.15_PT237H.grib2 2026-04-12 17:03 1.2M
20260412T12Z_MSC_GDPS_WindSpeed_AGL-80m_LatLon0.15_PT237H.grib2 2026-04-12 17:03 1.2M
20260412T12Z_MSC_GDPS_WindSpeed_IsbL-0001_LatLon0.15_PT237H.grib2 2026-04-12 17:03 631K
20260412T12Z_MSC_GDPS_WindSpeed_IsbL-0005_LatLon0.15_PT237H.grib2 2026-04-12 17:03 603K
20260412T12Z_MSC_GDPS_WindSpeed_IsbL-0500_LatLon0.15_PT237H.grib2 2026-04-12 17:03 1.1M
20260412T12Z_MSC_GDPS_WindSpeed_IsbL-0700_LatLon0.15_PT237H.grib2 2026-04-12 17:03 1.5M
20260412T12Z_MSC_GDPS_WindSpeed_IsbL-0850_LatLon0.15_PT237H.grib2 2026-04-12 17:03 1.8M
20260412T12Z_MSC_GDPS_WindSpeed_IsbL-0925_LatLon0.15_PT237H.grib2 2026-04-12 17:03 1.8M
20260412T12Z_MSC_GDPS_WindSpeed_IsbL-1000_LatLon0.15_PT237H.grib2 2026-04-12 17:03 1.8M
20260412T12Z_MSC_GDPS_WindU_AGL-10m_LatLon0.15_PT237H.grib2 2026-04-12 17:03 1.3M
20260412T12Z_MSC_GDPS_WindU_AGL-120m_LatLon0.15_PT237H.grib2 2026-04-12 17:03 968K
20260412T12Z_MSC_GDPS_WindU_AGL-40m_LatLon0.15_PT237H.grib2 2026-04-12 17:03 966K
20260412T12Z_MSC_GDPS_WindU_AGL-80m_LatLon0.15_PT237H.grib2 2026-04-12 17:03 969K
20260412T12Z_MSC_GDPS_WindU_IsbL-0001_LatLon0.15_PT237H.grib2 2026-04-12 17:03 636K
20260412T12Z_MSC_GDPS_WindU_IsbL-0005_LatLon0.15_PT237H.grib2 2026-04-12 17:03 680K
20260412T12Z_MSC_GDPS_WindU_IsbL-0500_LatLon0.15_PT237H.grib2 2026-04-12 17:03 894K
20260412T12Z_MSC_GDPS_WindU_IsbL-0700_LatLon0.15_PT237H.grib2 2026-04-12 17:03 1.2M
20260412T12Z_MSC_GDPS_WindU_IsbL-0850_LatLon0.15_PT237H.grib2 2026-04-12 17:03 1.4M
20260412T12Z_MSC_GDPS_WindU_IsbL-0925_LatLon0.15_PT237H.grib2 2026-04-12 17:03 1.5M
20260412T12Z_MSC_GDPS_WindU_IsbL-1000_LatLon0.15_PT237H.grib2 2026-04-12 17:03 1.4M
20260412T12Z_MSC_GDPS_WindV_AGL-10m_LatLon0.15_PT237H.grib2 2026-04-12 17:03 1.3M
20260412T12Z_MSC_GDPS_WindV_AGL-120m_LatLon0.15_PT237H.grib2 2026-04-12 17:03 966K
20260412T12Z_MSC_GDPS_WindV_AGL-40m_LatLon0.15_PT237H.grib2 2026-04-12 17:03 963K
20260412T12Z_MSC_GDPS_WindV_AGL-80m_LatLon0.15_PT237H.grib2 2026-04-12 17:03 968K
20260412T12Z_MSC_GDPS_WindV_IsbL-0001_LatLon0.15_PT237H.grib2 2026-04-12 17:03 542K
20260412T12Z_MSC_GDPS_WindV_IsbL-0005_LatLon0.15_PT237H.grib2 2026-04-12 17:03 602K
20260412T12Z_MSC_GDPS_WindV_IsbL-0500_LatLon0.15_PT237H.grib2 2026-04-12 17:03 1.1M
20260412T12Z_MSC_GDPS_WindV_IsbL-0700_LatLon0.15_PT237H.grib2 2026-04-12 17:03 1.2M
20260412T12Z_MSC_GDPS_WindV_IsbL-0850_LatLon0.15_PT237H.grib2 2026-04-12 17:03 1.4M
20260412T12Z_MSC_GDPS_WindV_IsbL-0925_LatLon0.15_PT237H.grib2 2026-04-12 17:03 1.5M
20260412T12Z_MSC_GDPS_WindV_IsbL-1000_LatLon0.15_PT237H.grib2 2026-04-12 17:03 1.4M